天目一号 22星 (TIANMU-1 22)

导读

TIANMU-1 22(天目一号22星)是中国研制的气象掩星探测卫星,于2023年12月27日在酒泉卫星发射中心,由快舟一号甲运载火箭以“一箭四星”方式发射入轨,属于天目一号掩星探测星座组网星。该卫星主要用于获取全球大气环境要素信息,组网完成后可实现全球全天候多圈层一体化探测,为数值天气预报、气象预报提供数据支撑,已正式进入业务化应用阶段。

基本信息
目录编号:
58663
目录名称:
TIANMU-1 22
国际标识:
2023-208D
轨道中心:
EARTH
卫星名称:
天目一号 22星
卫星全名:
天目一号 22星 (TIANMU-1 22)
卫星状态:
在轨 (已飞行989 天)
发射日期:
2023-12-27 UTC
国别 :
中国 (CN)
星等 :
--
轨道信息
数据来源 国际轨道数据
星历时间: 2026-09-10T23:49:06+0800
11小时前
查看轨道信息
半长轴: 6847.599km
偏心率: 0.0004581
轨道倾角: 97.457°
近地点辐角 52.764°
升交点赤经 10.358°
平近点角 307.402°
近地点: 466.325km
远地点: 472.599km
周期: 93.987分钟
每日圈数: 15.321291
详细信息
覆盖范围:
全球
运营商:
中国航天科工集团有限公司
运营商所在国:
中国
制造商(研发单位):
中国航天科工集团有限公司
制造商所在国:
中国
使用方式:
暂无
卫星简介
天目一号气象星座,是由中国航天科工集团落户西部(重庆)科学城西永微电园企业研制,主要用于获取全球大气环境要素信息,建成后可实现全球全天候海洋、大气层、电离层的立体化、一体化探测。该卫星仍在工作。
2D轨道图
3D轨道图
轨道高度分析图
轨道倾角分析图
轨道综合分析图
查看轨道综合分析图
交会数据列表
事件ID 空间交会对象 最接近时刻(TCA) 交会距离 交会风险概率(CRP) 交会风险指数(CRI) 操作
CDM_260911-054105-362305-866322
2026-09-11T
05:41:28+0000
1.081 km
极远距离
1.747839E-5 中风险 0.6
CDM_260913-074104-579405-866322
2026-09-13T
07:41:03+0000
0.938 km
远距离
9.959408E-6 低风险 0.55
CDM_260912-142105-866306-435621
2026-09-12T
14:21:46+0000
1.382 km
极远距离
7.200922E-6 低风险 0.52
CDM_260911-043004-836005-866322
2026-09-11T
04:30:06+0000
1.611 km
极远距离
5.255594E-6 低风险 0.49
CDM_260904-184905-866306-282023
2026-09-04T
18:49:27+0000
1.751 km
极远距离
4.111043E-6 低风险 0.47
CDM_260912-131104-844305-866322
2026-09-12T
13:11:47+0000
1.699 km
极远距离
2.527384E-6 低风险 0.43
CDM_260910-205105-866306-821722
2026-09-10T
20:51:37+0000
2.122 km
极远距离
2.273044E-6 低风险 0.42
CDM_260912-093005-866306-470821
2026-09-12T
09:30:58+0000
2.976 km
极远距离
1.36751E-6 低风险 0.38
CDM_260911-154404-002405-866322
2026-09-11T
15:44:57+0000
2.628 km
极远距离
1.234311E-6 低风险 0.37
CDM_260913-045304-973205-866321
2026-09-13T
04:53:09+0000
2.545 km
极远距离
1.00256E-6 低风险 0.35
与全量物体交会距离演化趋势
与全量物体交会风险概率演化趋势